| time (UTC) | temp F | wind direction | speed MPH | gust MPH | rain 1hr in | rain 24hr in | rain mn in | humidity % | barometer mb |
| 20260505003540 | 66 | 61 | 2.0 | 3.0 | 0.00 | 0.00 | 0.00 | 45 | 1015.0 |
| 20260505003037 | 67 | 36 | 3.0 | 3.0 | 0.00 | 0.00 | 0.00 | 44 | 1015.1 |
| 20260505002537 | 67 | 48 | 3.0 | 3.0 | 0.00 | 0.00 | 0.00 | 43 | 1014.9 |
| 20260505002037 | 68 | 35 | 2.0 | 2.0 | 0.00 | 0.00 | 0.00 | 44 | 1014.8 |
| 20260505001534 | 68 | 60 | 3.0 | 3.0 | 0.00 | 0.00 | 0.00 | 43 | 1014.9 |
| 20260505001031 | 68 | 65 | 2.0 | 3.0 | 0.00 | 0.00 | 0.00 | 44 | 1014.9 |
| 20260505000528 | 69 | 29 | 2.0 | 3.0 | 0.00 | 0.00 | 0.00 | 43 | 1014.8 |
| 20260505000026 | 70 | 70 | 1.0 | 2.0 | 0.00 | 0.00 | 0.00 | 40 | 1015.0 |
| 20260504235522 | 70 | 68 | 2.0 | 3.0 | 0.00 | 0.00 | 0.00 | 38 | 1014.7 |
| 20260504235019 | 71 | 61 | 2.0 | 3.0 | 0.00 | 0.00 | 0.00 | 37 | 1014.6 |
| 20260504234516 | 71 | 61 | 2.0 | 2.0 | 0.00 | 0.00 | 0.00 | 37 | 1014.7 |
| 20260504234013 | 72 | 77 | 2.0 | 2.0 | 0.00 | 0.00 | 0.00 | 35 | 1014.8 |
| 20260504233508 | 72 | 93 | 1.0 | 2.0 | 0.00 | 0.00 | 0.00 | 33 | 1014.6 |
| 20260504233005 | 72 | 67 | 2.0 | 2.0 | 0.00 | 0.00 | 0.00 | 34 | 1014.6 |
| 20260504232502 | 73 | 79 | 1.0 | 2.0 | 0.00 | 0.00 | 0.00 | 33 | 1014.8 |
| 20260504232000 | 73 | 81 | 2.0 | 2.0 | 0.00 | 0.00 | 0.00 | 33 | 1014.6 |
| 20260504231456 | 73 | 87 | 2.0 | 4.0 | 0.00 | 0.00 | 0.00 | 31 | 1014.7 |
| 20260504230952 | 74 | 45 | 2.0 | 3.0 | 0.00 | 0.00 | 0.00 | 31 | 1014.7 |
| 20260504230449 | 74 | 59 | 2.0 | 3.0 | 0.00 | 0.00 | 0.00 | 31 | 1014.6 |
| 20260504225948 | 75 | 75 | 3.0 | 3.0 | 0.00 | 0.00 | 0.00 | 30 | 1014.7 |
| 20260504225444 | 76 | 35 | 4.0 | 4.0 | 0.00 | 0.00 | 0.00 | 30 | 1014.7 |
| 20260504224942 | 76 | 71 | 3.0 | 3.0 | 0.00 | 0.00 | 0.00 | 30 | 1014.5 |
| 20260504224438 | 77 | 54 | 3.0 | 3.0 | 0.00 | 0.00 | 0.00 | 29 | 1014.5 |
| 20260504223935 | 77 | 68 | 3.0 | 3.0 | 0.00 | 0.00 | 0.00 | 29 | 1014.7 |
| 20260504223431 | 78 | 102 | 3.0 | 3.0 | 0.00 | 0.00 | 0.00 | 28 | 1014.7 |
| 20260504222927 | 78 | 94 | 2.0 | 3.0 | 0.00 | 0.00 | 0.00 | 28 | 1014.7 |
| 20260504222425 | 79 | 142 | 2.0 | 4.0 | 0.00 | 0.00 | 0.00 | 27 | 1014.7 |
| 20260504221922 | 79 | 93 | 3.0 | 4.0 | 0.00 | 0.00 | 0.00 | 27 | 1014.6 |
| 20260504221419 | 80 | 98 | 3.0 | 4.0 | 0.00 | 0.00 | 0.00 | 26 | 1014.7 |
| 20260504220916 | 81 | 98 | 4.0 | 4.0 | 0.00 | 0.00 | 0.00 | 26 | 1014.6 |
| 20260504220413 | 81 | 105 | 3.0 | 4.0 | 0.00 | 0.00 | 0.00 | 27 | 1014.6 |
| 20260504215910 | 80 | 129 | 2.0 | 3.0 | 0.00 | 0.00 | 0.00 | 27 | 1014.5 |
| 20260504215407 | 80 | 110 | 2.0 | 3.0 | 0.00 | 0.00 | 0.00 | 28 | 1014.6 |
| 20260504214903 | 81 | 115 | 2.0 | 3.0 | 0.00 | 0.00 | 0.00 | 28 | 1014.4 |
| 20260504214359 | 81 | 95 | 2.0 | 3.0 | 0.00 | 0.00 | 0.00 | 27 | 1014.7 |
| 20260504213856 | 81 | 98 | 2.0 | 4.0 | 0.00 | 0.00 | 0.00 | 27 | 1014.7 |
| 20260504213352 | 81 | 114 | 3.0 | 4.0 | 0.00 | 0.00 | 0.00 | 26 | 1014.7 |
| 20260504212850 | 82 | 101 | 2.0 | 6.0 | 0.00 | 0.00 | 0.00 | 26 | 1014.6 |
| 20260504212345 | 82 | 76 | 3.0 | 4.0 | 0.00 | 0.00 | 0.00 | 25 | 1014.5 |
| 20260504211844 | 83 | 27 | 2.0 | 3.0 | 0.00 | 0.00 | 0.00 | 25 | 1014.4 |
| 20260504211339 | 83 | 94 | 4.0 | 6.0 | 0.00 | 0.00 | 0.00 | 27 | 1014.5 |
| 20260504210837 | 83 | 88 | 2.0 | 4.0 | 0.00 | 0.00 | 0.00 | 26 | 1014.3 |
| 20260504210334 | 83 | 82 | 3.0 | 4.0 | 0.00 | 0.00 | 0.00 | 27 | 1014.4 |
| 20260504205831 | 83 | 131 | 4.0 | 4.0 | 0.00 | 0.00 | 0.00 | 27 | 1014.5 |
| 20260504205329 | 83 | 47 | 2.0 | 3.0 | 0.00 | 0.00 | 0.00 | 28 | 1014.4 |
| 20260504204826 | 83 | 91 | 3.0 | 4.0 | 0.00 | 0.00 | 0.00 | 26 | 1014.4 |
| 20260504204325 | 83 | 138 | 3.0 | 4.0 | 0.00 | 0.00 | 0.00 | 27 | 1014.4 |
| 20260504203824 | 84 | 94 | 2.0 | 4.0 | 0.00 | 0.00 | 0.00 | 26 | 1014.6 |
| 20260504203320 | 83 | 358 | 2.0 | 3.0 | 0.00 | 0.00 | 0.00 | 26 | 1014.4 |
| 20260504202816 | 83 | 89 | 2.0 | 4.0 | 0.00 | 0.00 | 0.00 | 27 | 1014.5 |
| 20260504202314 | 83 | 31 | 0.0 | 4.0 | 0.00 | 0.00 | 0.00 | 28 | 1014.4 |
| 20260504201810 | 83 | 99 | 2.0 | 4.0 | 0.00 | 0.00 | 0.00 | 26 | 1014.7 |
| 20260504201308 | 84 | 114 | 3.0 | 4.0 | 0.00 | 0.00 | 0.00 | 29 | 1014.7 |
| 20260504200805 | 84 | 94 | 3.0 | 3.0 | 0.00 | 0.00 | 0.00 | 27 | 1014.7 |
| 20260504200301 | 84 | 95 | 2.0 | 3.0 | 0.00 | 0.00 | 0.00 | 28 | 1014.9 |
| 20260504195757 | 83 | 133 | 1.0 | 4.0 | 0.00 | 0.00 | 0.00 | 27 | 1014.9 |
| 20260504195253 | 83 | 89 | 2.0 | 3.0 | 0.00 | 0.00 | 0.00 | 26 | 1015.0 |
| 20260504194750 | 83 | 86 | 2.0 | 3.0 | 0.00 | 0.00 | 0.00 | 29 | 1015.1 |
| 20260504194247 | 82 | 92 | 3.0 | 4.0 | 0.00 | 0.00 | 0.00 | 28 | 1015.1 |
| 20260504193743 | 83 | 55 | 1.0 | 4.0 | 0.00 | 0.00 | 0.00 | 27 | 1015.1 |
| 20260504193240 | 83 | 99 | 2.0 | 3.0 | 0.00 | 0.00 | 0.00 | 27 | 1015.2 |
| 20260504192739 | 82 | 72 | 2.0 | 3.0 | 0.00 | 0.00 | 0.00 | 27 | 1015.5 |
| 20260504192236 | 82 | 21 | 2.0 | 3.0 | 0.00 | 0.00 | 0.00 | 27 | 1015.4 |
| 20260504191735 | 82 | 87 | 3.0 | 4.0 | 0.00 | 0.00 | 0.00 | 28 | 1015.1 |
| 20260504191231 | 81 | 73 | 2.0 | 3.0 | 0.00 | 0.00 | 0.00 | 29 | 1015.5 |
| 20260504190726 | 80 | 22 | 2.0 | 4.0 | 0.00 | 0.00 | 0.00 | 31 | 1015.6 |
| 20260504190223 | 80 | 357 | 2.0 | 4.0 | 0.00 | 0.00 | 0.00 | 30 | 1015.6 |
| 20260504185720 | 79 | 73 | 2.0 | 3.0 | 0.00 | 0.00 | 0.00 | 31 | 1015.8 |
| 20260504185217 | 79 | 109 | 2.0 | 4.0 | 0.00 | 0.00 | 0.00 | 30 | 1015.9 |
| 20260504184713 | 79 | 30 | 2.0 | 3.0 | 0.00 | 0.00 | 0.00 | 30 | 1015.8 |
| 20260504184209 | 78 | 35 | 2.0 | 4.0 | 0.00 | 0.00 | 0.00 | 30 | 1016.1 |
| 20260504183705 | 79 | 255 | 0.0 | 4.0 | 0.00 | 0.00 | 0.00 | 29 | 1015.9 |
| 20260504183202 | 78 | 117 | 2.0 | 3.0 | 0.00 | 0.00 | 0.00 | 29 | 1016.0 |
| 20260504182700 | 78 | 143 | 3.0 | 4.0 | 0.00 | 0.00 | 0.00 | 32 | 1016.1 |
| 20260504182157 | 78 | 80 | 2.0 | 4.0 | 0.00 | 0.00 | 0.00 | 32 | 1016.3 |
| 20260504181655 | 77 | 40 | 0.0 | 2.0 | 0.00 | 0.00 | 0.00 | 29 | 1016.1 |
| 20260504181152 | 77 | 282 | 2.0 | 4.0 | 0.00 | 0.00 | 0.00 | 28 | 1016.3 |
| 20260504180651 | 77 | 89 | 3.0 | 4.0 | 0.00 | 0.00 | 0.00 | 30 | 1016.3 |
| 20260504180149 | 77 | 68 | 3.0 | 4.0 | 0.00 | 0.00 | 0.00 | 29 | 1016.2 |
| 20260504175646 | 76 | 70 | 2.0 | 3.0 | 0.00 | 0.00 | 0.00 | 30 | 1016.4 |
| 20260504175142 | 75 | 54 | 2.0 | 3.0 | 0.00 | 0.00 | 0.00 | 31 | 1016.5 |
| 20260504174641 | 75 | 128 | 2.0 | 4.0 | 0.00 | 0.00 | 0.00 | 32 | 1016.6 |
| 20260504174137 | 74 | 143 | 3.0 | 3.0 | 0.00 | 0.00 | 0.00 | 32 | 1016.5 |
| 20260504173635 | 74 | 82 | 1.0 | 3.0 | 0.00 | 0.00 | 0.00 | 29 | 1016.4 |
| 20260504173132 | 74 | 97 | 3.0 | 3.0 | 0.00 | 0.00 | 0.00 | 33 | 1016.5 |
| 20260504172628 | 73 | 159 | 2.0 | 2.0 | 0.00 | 0.00 | 0.00 | 31 | 1016.8 |
| 20260504172125 | 73 | 146 | 3.0 | 4.0 | 0.00 | 0.00 | 0.00 | 31 | 1016.8 |
| 20260504171621 | 73 | 96 | 3.0 | 4.0 | 0.00 | 0.00 | 0.00 | 31 | 1016.8 |
| 20260504171119 | 73 | 160 | 2.0 | 4.0 | 0.00 | 0.00 | 0.00 | 33 | 1016.7 |
| 20260504170614 | 73 | 131 | 3.0 | 3.0 | 0.00 | 0.00 | 0.00 | 32 | 1016.9 |
| 20260504170112 | 72 | 37 | 1.0 | 3.0 | 0.00 | 0.00 | 0.00 | 35 | 1016.9 |
| 20260504150958 | 64 | 65 | 2.0 | 2.0 | 0.00 | 0.00 | 0.00 | 40 | 1018.9 |
| 20260504150455 | 63 | 84 | 2.0 | 2.0 | 0.00 | 0.00 | 0.00 | 46 | 1018.8 |
| 20260504140921 | 57 | 47 | 2.0 | 3.0 | 0.00 | 0.00 | 0.00 | 58 | 1018.9 |
| 20260504140417 | 57 | 74 | 1.0 | 2.0 | 0.00 | 0.00 | 0.00 | 58 | 1019.0 |
| 20260504130343 | 49 | 94 | 2.0 | 3.0 | 0.00 | 0.00 | 0.00 | 78 | 1018.6 |
| 20260504120306 | 41 | 43 | 3.0 | 3.0 | 0.00 | 0.00 | 0.00 | 90 | 1018.3 |
| 20260504110229 | 39 | 41 | 2.0 | 2.0 | 0.00 | 0.00 | 0.00 | 90 | 1018.0 |
| 20260504100153 | 40 | 41 | 2.0 | 3.0 | 0.00 | 0.00 | 0.00 | 88 | 1018.2 |
| 20260504090116 | 41 | 60 | 2.0 | 3.0 | 0.00 | 0.00 | 0.00 | 86 | 1018.4 |
| 20260504081546 | 43 | 52 | 3.0 | 3.0 | 0.00 | 0.00 | 0.00 | 81 | 1018.0 |
| 20260504081042 | 43 | 63 | 1.0 | 2.0 | 0.00 | 0.00 | 0.00 | 83 | 1017.7 |
| 20260504080539 | 43 | 79 | 1.0 | 2.0 | 0.00 | 0.00 | 0.00 | 82 | 1017.9 |
| 20260504050352 | 47 | 95 | 1.0 | 2.0 | 0.00 | 0.00 | 0.00 | 67 | 1018.3 |
| 20260504045849 | 48 | 89 | 0.0 | 2.0 | 0.00 | 0.00 | 0.00 | 68 | 1018.3 |
| 20260504045349 | 48 | 94 | 2.0 | 2.0 | 0.00 | 0.00 | 0.00 | 67 | 1018.1 |
| 20260504044846 | 48 | 67 | 0.0 | 2.0 | 0.00 | 0.00 | 0.00 | 66 | 1018.2 |
| 20260504044344 | 48 | 45 | 0.0 | 1.0 | 0.00 | 0.00 | 0.00 | 65 | 1018.2 |
| 20260504043841 | 49 | 47 | 0.0 | 1.0 | 0.00 | 0.00 | 0.00 | 63 | 1018.1 |
| 20260504043338 | 49 | 29 | 0.0 | 2.0 | 0.00 | 0.00 | 0.00 | 63 | 1018.1 |
| 20260504042835 | 49 | 4 | 1.0 | 2.0 | 0.00 | 0.00 | 0.00 | 63 | 1018.1 |
| 20260504042331 | 49 | 99 | 2.0 | 2.0 | 0.00 | 0.00 | 0.00 | 61 | 1018.1 |
| 20260504041828 | 49 | 78 | 2.0 | 2.0 | 0.00 | 0.00 | 0.00 | 61 | 1018.2 |
| 20260504041324 | 49 | 74 | 1.0 | 2.0 | 0.00 | 0.00 | 0.00 | 63 | 1018.1 |
| 20260504040821 | 49 | 69 | 0.0 | 2.0 | 0.00 | 0.00 | 0.00 | 63 | 1018.1 |
| 20260504040318 | 49 | 350 | 2.0 | 2.0 | 0.00 | 0.00 | 0.00 | 64 | 1017.9 |
| 20260504035814 | 49 | 76 | 1.0 | 2.0 | 0.00 | 0.00 | 0.00 | 62 | 1018.1 |
| 20260504035311 | 50 | 5 | 1.0 | 2.0 | 0.00 | 0.00 | 0.00 | 63 | 1018.2 |
| 20260504034808 | 50 | 50 | 1.0 | 2.0 | 0.00 | 0.00 | 0.00 | 63 | 1018.0 |
| 20260504034306 | 50 | 327 | 1.0 | 2.0 | 0.00 | 0.00 | 0.00 | 63 | 1018.0 |
| 20260504033803 | 50 | 89 | 1.0 | 2.0 | 0.00 | 0.00 | 0.00 | 62 | 1018.0 |
| 20260504033301 | 51 | 36 | 0.0 | 2.0 | 0.00 | 0.00 | 0.00 | 61 | 1018.0 |
| 20260504032757 | 51 | 93 | 0.0 | 2.0 | 0.00 | 0.00 | 0.00 | 59 | 1018.0 |
| 20260504032254 | 51 | 59 | 1.0 | 2.0 | 0.00 | 0.00 | 0.00 | 60 | 1018.0 |
| 20260504031751 | 51 | 89 | 0.0 | 2.0 | 0.00 | 0.00 | 0.00 | 58 | 1018.2 |
| 20260504031249 | 52 | 78 | 2.0 | 2.0 | 0.00 | 0.00 | 0.00 | 57 | 1018.3 |
| 20260504030744 | 52 | 72 | 2.0 | 3.0 | 0.00 | 0.00 | 0.00 | 56 | 1018.2 |
| 20260504030242 | 52 | 88 | 0.0 | 3.0 | 0.00 | 0.00 | 0.00 | 54 | 1018.2 |
| 20260504025738 | 53 | 76 | 2.0 | 3.0 | 0.00 | 0.00 | 0.00 | 54 | 1018.1 |
| 20260504025235 | 53 | 48 | 2.0 | 3.0 | 0.00 | 0.00 | 0.00 | 54 | 1018.2 |
| 20260504024732 | 53 | 31 | 2.0 | 3.0 | 0.00 | 0.00 | 0.00 | 56 | 1018.3 |
| 20260504024228 | 53 | 26 | 2.0 | 2.0 | 0.00 | 0.00 | 0.00 | 54 | 1018.1 |
| 20260504023726 | 54 | 33 | 2.0 | 3.0 | 0.00 | 0.00 | 0.00 | 53 | 1018.2 |
| 20260504023221 | 54 | 51 | 2.0 | 3.0 | 0.00 | 0.00 | 0.00 | 53 | 1018.2 |
| 20260504022718 | 55 | 9 | 1.0 | 3.0 | 0.00 | 0.00 | 0.00 | 54 | 1018.0 |
| 20260504022214 | 55 | 58 | 2.0 | 2.0 | 0.00 | 0.00 | 0.00 | 49 | 1018.1 |
| 20260504021712 | 55 | 46 | 2.0 | 2.0 | 0.00 | 0.00 | 0.00 | 48 | 1018.1 |
| 20260504021208 | 54 | 84 | 1.0 | 2.0 | 0.00 | 0.00 | 0.00 | 51 | 1018.0 |
| 20260504020705 | 54 | 29 | 2.0 | 2.0 | 0.00 | 0.00 | 0.00 | 53 | 1017.7 |
| 20260504020201 | 54 | 69 | 2.0 | 3.0 | 0.00 | 0.00 | 0.00 | 55 | 1017.6 |
| 20260504015658 | 54 | 53 | 2.0 | 3.0 | 0.00 | 0.00 | 0.00 | 55 | 1017.7 |
| 20260504015154 | 54 | 50 | 2.0 | 2.0 | 0.00 | 0.00 | 0.00 | 55 | 1017.7 |
| 20260504014650 | 55 | 13 | 2.0 | 2.0 | 0.00 | 0.00 | 0.00 | 60 | 1017.4 |
| 20260504014147 | 55 | 19 | 2.0 | 3.0 | 0.00 | 0.00 | 0.00 | 58 | 1017.2 |
| 20260504013645 | 55 | 44 | 3.0 | 3.0 | 0.00 | 0.00 | 0.00 | 56 | 1017.1 |
| 20260504013141 | 55 | 62 | 2.0 | 3.0 | 0.00 | 0.00 | 0.00 | 58 | 1017.2 |
| 20260504012639 | 55 | 40 | 2.0 | 3.0 | 0.00 | 0.00 | 0.00 | 60 | 1017.2 |
| 20260504012137 | 56 | 43 | 2.0 | 3.0 | 0.00 | 0.00 | 0.00 | 57 | 1017.0 |
| 20260504011633 | 56 | 31 | 2.0 | 2.0 | 0.00 | 0.00 | 0.00 | 58 | 1017.1 |
| 20260504011130 | 57 | 33 | 0.0 | 2.0 | 0.00 | 0.00 | 0.00 | 56 | 1016.9 |
| 20260504010626 | 57 | 50 | 2.0 | 2.0 | 0.00 | 0.00 | 0.00 | 55 | 1016.9 |
| 20260504010122 | 58 | 45 | 1.0 | 2.0 | 0.00 | 0.00 | 0.00 | 54 | 1016.8 |
| 20260504005619 | 59 | 47 | 2.0 | 3.0 | 0.00 | 0.00 | 0.00 | 52 | 1017.0 |
| 20260504005115 | 60 | 45 | 2.0 | 3.0 | 0.00 | 0.00 | 0.00 | 51 | 1016.8 |
| 20260504004614 | 60 | 74 | 2.0 | 2.0 | 0.00 | 0.00 | 0.00 | 51 | 1016.8 |
| 20260504004111 | 61 | 72 | 2.0 | 2.0 | 0.00 | 0.00 | 0.00 | 49 | 1016.8 |